Location: Newark
(48.6767°N, 1.3256°E)
Time: 03:12:47
(UTC+00:00)

ISS - Pass Details

Date: 30 November 2019
Orbit: 411 x 421 km, 51.6° (Epoch: 12 December)

Event Time Altitude Azimuth Distance (km) Brightness Sun altitude
Rises 17:23:04 0° 265° (W) 2,353 1.8 -12.9°
Reaches altitude 10° 17:25:11 10° 270° (W) 1,493 0.3 -13.2°
Maximum altitude 17:28:29 56° 349° (N) 503 -3.5 -13.7°
Enters shadow 17:30:04 27° 58° (ENE) 839 -2.8 -14.0°
